owner,sensor,date,latitude,longitude,air_pressure(mBar),qcFlag 
DISL,ioos:station:DISL:DISL:1,2010-01-02T11:30:00Z,30.2513,-88.0778,526.0,1111122 
DISL,ioos:station:DISL:DISL:1,2010-01-02T12:00:00Z,30.2513,-88.0778,588.0,1111122 
DISL,ioos:station:DISL:DISL:1,2010-01-02T12:30:00Z,30.2513,-88.0778,588.0,1111122 
DISL,ioos:station:DISL:DISL:1,2010-01-02T23:00:00Z,30.2513,-88.0778,526.0,1111122 
DISL,ioos:station:DISL:DISL:1,2010-01-03T06:00:00Z,30.2513,-88.0778,526.0,1111122 
DISL,ioos:station:DISL:DISL:1,2010-01-03T06:30:00Z,30.2513,-88.0778,526.0,1111122 
DISL,ioos:station:DISL:DISL:1,2010-01-03T07:00:00Z,30.2513,-88.0778,588.0,1111122 
DISL,ioos:station:DISL:DISL:1,2010-01-03T07:30:00Z,30.2513,-88.0778,603.0,1111122 
DISL,ioos:station:DISL:DISL:1,2010-01-03T08:00:00Z,30.2513,-88.0778,588.0,1111122 
DISL,ioos:station:DISL:DISL:1,2010-01-03T08:30:00Z,30.2513,-88.0778,603.0,1111122 
DISL,ioos:station:DISL:DISL:1,2010-01-03T09:00:00Z,30.2513,-88.0778,588.0,1111122 
DISL,ioos:station:DISL:DISL:1,2010-01-03T09:30:00Z,30.2513,-88.0778,588.0,1111122 
DISL,ioos:station:DISL:DISL:1,2010-01-03T10:00:00Z,30.2513,-88.0778,573.0,1111122 
DISL,ioos:station:DISL:DISL:1,2010-01-03T10:30:00Z,30.2513,-88.0778,541.0,1111122 
DISL,ioos:station:DISL:DISL:1,2010-01-03T11:00:00Z,30.2513,-88.0778,526.0,1111122 
DISL,ioos:station:DISL:DISL:1,2010-01-03T11:30:00Z,30.2513,-88.0778,526.0,1111122 
DISL,ioos:station:DISL:DISL:1,2010-01-03T12:00:00Z,30.2513,-88.0778,588.0,1111122 
DISL,ioos:station:DISL:DISL:1,2010-01-03T12:30:00Z,30.2513,-88.0778,588.0,1111122 
DISL,ioos:station:DISL:DISL:1,2010-01-03T13:00:00Z,30.2513,-88.0778,1207.0,1111122 
DISL,ioos:station:DISL:DISL:1,2010-01-03T23:00:00Z,30.2513,-88.0778,835.0,1111122 
DISL,ioos:station:DISL:DISL:1,2010-01-04T06:30:00Z,30.2513,-88.0778,526.0,1111122 
DISL,ioos:station:DISL:DISL:1,2010-01-04T11:30:00Z,30.2513,-88.0778,526.0,1111122 
DISL,ioos:station:DISL:DISL:1,2010-01-04T12:30:00Z,30.2513,-88.0778,526.0,1111122 
DISL,ioos:station:DISL:DISL:1,2010-01-04T13:00:00Z,30.2513,-88.0778,1393.0,1111122 
DISL,ioos:station:DISL:DISL:1,2010-01-04T22:30:00Z,30.2513,-88.0778,1145.0,1111122 
DISL,ioos:station:DISL:DISL:1,2010-01-04T23:00:00Z,30.2513,-88.0778,650.0,1111122 
DISL,ioos:station:DISL:DISL:1,2010-01-05T01:30:00Z,30.2513,-88.0778,511.0,1111122 
DISL,ioos:station:DISL:DISL:1,2010-01-05T02:00:00Z,30.2513,-88.0778,526.0,1111122 
DISL,ioos:station:DISL:DISL:1,2010-01-05T03:00:00Z,30.2513,-88.0778,511.0,1111122 
DISL,ioos:station:DISL:DISL:1,2010-01-05T03:30:00Z,30.2513,-88.0778,526.0,1111122 
DISL,ioos:station:DISL:DISL:1,2010-01-05T04:00:00Z,30.2513,-88.0778,588.0,1111122 
DISL,ioos:station:DISL:DISL:1,2010-01-05T04:30:00Z,30.2513,-88.0778,541.0,1111122 
DISL,ioos:station:DISL:DISL:1,2010-01-05T05:00:00Z,30.2513,-88.0778,526.0,1111122 
DISL,ioos:station:DISL:DISL:1,2010-01-05T05:30:00Z,30.2513,-88.0778,526.0,1111122 
DISL,ioos:station:DISL:DISL:1,2010-01-05T06:00:00Z,30.2513,-88.0778,526.0,1111122 
DISL,ioos:station:DISL:DISL:1,2010-01-05T06:30:00Z,30.2513,-88.0778,526.0,1111122 
DISL,ioos:station:DISL:DISL:1,2010-01-05T07:00:00Z,30.2513,-88.0778,526.0,1111122 
DISL,ioos:station:DISL:DISL:1,2010-01-05T07:30:00Z,30.2513,-88.0778,526.0,1111122 
DISL,ioos:station:DISL:DISL:1,2010-01-05T08:00:00Z,30.2513,-88.0778,526.0,1111122 
DISL,ioos:station:DISL:DISL:1,2010-01-05T08:30:00Z,30.2513,-88.0778,526.0,1111122 
DISL,ioos:station:DISL:DISL:1,2010-01-05T09:00:00Z,30.2513,-88.0778,526.0,1111122 
DISL,ioos:station:DISL:DISL:1,2010-01-05T09:30:00Z,30.2513,-88.0778,526.0,1111122 
DISL,ioos:station:DISL:DISL:1,2010-01-05T10:00:00Z,30.2513,-88.0778,526.0,1111122 
DISL,ioos:station:DISL:DISL:1,2010-01-05T10:30:00Z,30.2513,-88.0778,774.0,1111122 
DISL,ioos:station:DISL:DISL:1,2010-01-05T11:00:00Z,30.2513,-88.0778,557.0,1111122 
DISL,ioos:station:DISL:DISL:1,2010-01-05T11:30:00Z,30.2513,-88.0778,526.0,1111122 
DISL,ioos:station:DISL:DISL:1,2010-01-05T12:30:00Z,30.2513,-88.0778,542.0,1111122 
DISL,ioos:station:DISL:DISL:1,2010-01-05T23:00:00Z,30.2513,-88.0778,1021.0,1111122 
DISL,ioos:station:DISL:DISL:1,2010-01-05T23:30:00Z,30.2513,-88.0778,526.0,1111122 
DISL,ioos:station:DISL:DISL:1,2010-01-06T00:00:00Z,30.2513,-88.0778,526.0,1111122 
DISL,ioos:station:DISL:DISL:1,2010-01-06T00:30:00Z,30.2513,-88.0778,526.0,1111122 
DISL,ioos:station:DISL:DISL:1,2010-01-06T01:00:00Z,30.2513,-88.0778,526.0,1111122 
DISL,ioos:station:DISL:DISL:1,2010-01-06T01:30:00Z,30.2513,-88.0778,526.0,1111122 
DISL,ioos:station:DISL:DISL:1,2010-01-06T02:00:00Z,30.2513,-88.0778,526.0,1111122 
DISL,ioos:station:DISL:DISL:1,2010-01-06T02:30:00Z,30.2513,-88.0778,526.0,1111122 
DISL,ioos:station:DISL:DISL:1,2010-01-06T03:00:00Z,30.2513,-88.0778,526.0,1111122 
DISL,ioos:station:DISL:DISL:1,2010-01-06T03:30:00Z,30.2513,-88.0778,526.0,1111122 
DISL,ioos:station:DISL:DISL:1,2010-01-06T04:00:00Z,30.2513,-88.0778,526.0,1111122 
DISL,ioos:station:DISL:DISL:1,2010-01-06T04:30:00Z,30.2513,-88.0778,526.0,1111122 
DISL,ioos:station:DISL:DISL:1,2010-01-06T05:00:00Z,30.2513,-88.0778,526.0,1111122 
DISL,ioos:station:DISL:DISL:1,2010-01-06T05:30:00Z,30.2513,-88.0778,526.0,1111122 
DISL,ioos:station:DISL:DISL:1,2010-01-06T06:00:00Z,30.2513,-88.0778,526.0,1111122 
DISL,ioos:station:DISL:DISL:1,2010-01-06T06:30:00Z,30.2513,-88.0778,526.0,1111122 
DISL,ioos:station:DISL:DISL:1,2010-01-06T07:00:00Z,30.2513,-88.0778,526.0,1111122 
DISL,ioos:station:DISL:DISL:1,2010-01-06T07:30:00Z,30.2513,-88.0778,526.0,1111122 
DISL,ioos:station:DISL:DISL:1,2010-01-06T08:00:00Z,30.2513,-88.0778,526.0,1111122 
DISL,ioos:station:DISL:DISL:1,2010-01-06T08:30:00Z,30.2513,-88.0778,526.0,1111122 
DISL,ioos:station:DISL:DISL:1,2010-01-06T09:00:00Z,30.2513,-88.0778,526.0,1111122 
DISL,ioos:station:DISL:DISL:1,2010-01-06T09:30:00Z,30.2513,-88.0778,526.0,1111122 
DISL,ioos:station:DISL:DISL:1,2010-01-06T10:00:00Z,30.2513,-88.0778,526.0,1111122 
DISL,ioos:station:DISL:DISL:1,2010-01-06T10:30:00Z,30.2513,-88.0778,526.0,1111122 
DISL,ioos:station:DISL:DISL:1,2010-01-06T11:00:00Z,30.2513,-88.0778,526.0,1111122 
DISL,ioos:station:DISL:DISL:1,2010-01-06T11:30:00Z,30.2513,-88.0778,526.0,1111122 
DISL,ioos:station:DISL:DISL:1,2010-01-06T12:00:00Z,30.2513,-88.0778,526.0,1111122 
DISL,ioos:station:DISL:DISL:1,2010-01-06T12:30:00Z,30.2513,-88.0778,526.0,1111122 
DISL,ioos:station:DISL:DISL:1,2010-01-06T23:00:00Z,30.2513,-88.0778,1021.0,1111122 
DISL,ioos:station:DISL:DISL:1,2010-01-06T23:30:00Z,30.2513,-88.0778,526.0,1111122 
DISL,ioos:station:DISL:DISL:1,2010-01-07T00:00:00Z,30.2513,-88.0778,526.0,1111122 
DISL,ioos:station:DISL:DISL:1,2010-01-07T00:30:00Z,30.2513,-88.0778,526.0,1111122 
DISL,ioos:station:DISL:DISL:1,2010-01-07T01:00:00Z,30.2513,-88.0778,526.0,1111122 
DISL,ioos:station:DISL:DISL:1,2010-01-07T01:30:00Z,30.2513,-88.0778,526.0,1111122 
DISL,ioos:station:DISL:DISL:1,2010-01-07T02:00:00Z,30.2513,-88.0778,526.0,1111122 
DISL,ioos:station:DISL:DISL:1,2010-01-07T02:30:00Z,30.2513,-88.0778,526.0,1111122 
DISL,ioos:station:DISL:DISL:1,2010-01-07T03:00:00Z,30.2513,-88.0778,526.0,1111122 
DISL,ioos:station:DISL:DISL:1,2010-01-07T03:30:00Z,30.2513,-88.0778,526.0,1111122 
DISL,ioos:station:DISL:DISL:1,2010-01-07T04:00:00Z,30.2513,-88.0778,526.0,1111122 
DISL,ioos:station:DISL:DISL:1,2010-01-07T04:30:00Z,30.2513,-88.0778,526.0,1111122 
DISL,ioos:station:DISL:DISL:1,2010-01-07T05:00:00Z,30.2513,-88.0778,526.0,1111122 
DISL,ioos:station:DISL:DISL:1,2010-01-07T05:30:00Z,30.2513,-88.0778,526.0,1111122 
DISL,ioos:station:DISL:DISL:1,2010-01-07T06:00:00Z,30.2513,-88.0778,526.0,1111122 
DISL,ioos:station:DISL:DISL:1,2010-01-07T06:30:00Z,30.2513,-88.0778,526.0,1111122 
DISL,ioos:station:DISL:DISL:1,2010-01-07T07:00:00Z,30.2513,-88.0778,526.0,1111122 
DISL,ioos:station:DISL:DISL:1,2010-01-07T07:30:00Z,30.2513,-88.0778,511.0,1111122 
DISL,ioos:station:DISL:DISL:1,2010-01-07T08:00:00Z,30.2513,-88.0778,526.0,1111122 
DISL,ioos:station:DISL:DISL:1,2010-01-07T09:00:00Z,30.2513,-88.0778,526.0,1111122 
DISL,ioos:station:DISL:DISL:1,2010-01-07T09:30:00Z,30.2513,-88.0778,511.0,1111122 
DISL,ioos:station:DISL:DISL:1,2010-01-07T10:00:00Z,30.2513,-88.0778,526.0,1111122 
DISL,ioos:station:DISL:DISL:1,2010-01-07T10:30:00Z,30.2513,-88.0778,526.0,1111122 
DISL,ioos:station:DISL:DISL:1,2010-01-07T11:00:00Z,30.2513,-88.0778,526.0,1111122 
DISL,ioos:station:DISL:DISL:1,2010-01-07T11:30:00Z,30.2513,-88.0778,526.0,1111122 
DISL,ioos:station:DISL:DISL:1,2010-01-07T12:00:00Z,30.2513,-88.0778,526.0,1111122 
DISL,ioos:station:DISL:DISL:1,2010-01-07T12:30:00Z,30.2513,-88.0778,526.0,1111122 
DISL,ioos:station:DISL:DISL:1,2010-01-07T13:00:00Z,30.2513,-88.0778,1083.0,1111122 
DISL,ioos:station:DISL:DISL:1,2010-01-07T22:00:00Z,30.2513,-88.0778,1253.0,1111122 
DISL,ioos:station:DISL:DISL:1,2010-01-07T22:30:00Z,30.2513,-88.0778,758.0,1111122 
DISL,ioos:station:DISL:DISL:1,2010-01-07T23:00:00Z,30.2513,-88.0778,541.0,1111122 
DISL,ioos:station:DISL:DISL:1,2010-01-08T04:00:00Z,30.2513,-88.0778,526.0,1111122 
DISL,ioos:station:DISL:DISL:1,2010-01-08T04:30:00Z,30.2513,-88.0778,526.0,1111122 
DISL,ioos:station:DISL:DISL:1,2010-01-08T05:00:00Z,30.2513,-88.0778,588.0,1111122 
DISL,ioos:station:DISL:DISL:1,2010-01-08T05:30:00Z,30.2513,-88.0778,588.0,1111122 
DISL,ioos:station:DISL:DISL:1,2010-01-08T06:00:00Z,30.2513,-88.0778,588.0,1111122 
DISL,ioos:station:DISL:DISL:1,2010-01-08T06:30:00Z,30.2513,-88.0778,603.0,1111122 
DISL,ioos:station:DISL:DISL:1,2010-01-08T07:00:00Z,30.2513,-88.0778,650.0,1111122 
DISL,ioos:station:DISL:DISL:1,2010-01-08T07:30:00Z,30.2513,-88.0778,588.0,1111122 
DISL,ioos:station:DISL:DISL:1,2010-01-08T08:00:00Z,30.2513,-88.0778,588.0,1111122 
DISL,ioos:station:DISL:DISL:1,2010-01-08T08:30:00Z,30.2513,-88.0778,619.0,1111122 
DISL,ioos:station:DISL:DISL:1,2010-01-08T09:00:00Z,30.2513,-88.0778,588.0,1111122 
DISL,ioos:station:DISL:DISL:1,2010-01-08T09:30:00Z,30.2513,-88.0778,588.0,1111122 
DISL,ioos:station:DISL:DISL:1,2010-01-08T10:00:00Z,30.2513,-88.0778,588.0,1111122 
DISL,ioos:station:DISL:DISL:1,2010-01-08T10:30:00Z,30.2513,-88.0778,635.0,1111122 
DISL,ioos:station:DISL:DISL:1,2010-01-08T11:00:00Z,30.2513,-88.0778,588.0,1111122 
DISL,ioos:station:DISL:DISL:1,2010-01-08T11:30:00Z,30.2513,-88.0778,557.0,1111122 
DISL,ioos:station:DISL:DISL:1,2010-01-08T12:00:00Z,30.2513,-88.0778,588.0,1111122 
DISL,ioos:station:DISL:DISL:1,2010-01-08T12:30:00Z,30.2513,-88.0778,681.0,1111122 
DISL,ioos:station:DISL:DISL:1,2010-01-08T13:00:00Z,30.2513,-88.0778,1378.0,1111122 
DISL,ioos:station:DISL:DISL:1,2010-01-08T23:00:00Z,30.2513,-88.0778,774.0,1111122 
DISL,ioos:station:DISL:DISL:1,2010-01-08T23:30:00Z,30.2513,-88.0778,526.0,1111122 
DISL,ioos:station:DISL:DISL:1,2010-01-09T00:00:00Z,30.2513,-88.0778,526.0,1111122 
DISL,ioos:station:DISL:DISL:1,2010-01-09T00:30:00Z,30.2513,-88.0778,526.0,1111122 
DISL,ioos:station:DISL:DISL:1,2010-01-09T01:00:00Z,30.2513,-88.0778,526.0,1111122 
DISL,ioos:station:DISL:DISL:1,2010-01-09T06:00:00Z,30.2513,-88.0778,526.0,1111122 
DISL,ioos:station:DISL:DISL:1,2010-01-09T06:30:00Z,30.2513,-88.0778,526.0,1111122 
DISL,ioos:station:DISL:DISL:1,2010-01-09T07:00:00Z,30.2513,-88.0778,526.0,1111122 
DISL,ioos:station:DISL:DISL:1,2010-01-09T07:30:00Z,30.2513,-88.0778,557.0,1111122 
DISL,ioos:station:DISL:DISL:1,2010-01-09T08:00:00Z,30.2513,-88.0778,526.0,1111122 
DISL,ioos:station:DISL:DISL:1,2010-01-09T09:00:00Z,30.2513,-88.0778,526.0,1111122 
DISL,ioos:station:DISL:DISL:1,2010-01-09T13:00:00Z,30.2513,-88.0778,991.0,1111122 
DISL,ioos:station:DISL:DISL:1,2010-01-13T13:00:00Z,30.2513,-88.0778,836.0,1111122 
DISL,ioos:station:DISL:DISL:1,2010-01-13T23:00:00Z,30.2513,-88.0778,1083.0,1111122 
DISL,ioos:station:DISL:DISL:1,2010-01-14T04:00:00Z,30.2513,-88.0778,526.0,1111122 
DISL,ioos:station:DISL:DISL:1,2010-01-14T04:30:00Z,30.2513,-88.0778,588.0,1111122 
DISL,ioos:station:DISL:DISL:1,2010-01-14T05:00:00Z,30.2513,-88.0778,588.0,1111122 
DISL,ioos:station:DISL:DISL:1,2010-01-14T05:30:00Z,30.2513,-88.0778,526.0,1111122 
DISL,ioos:station:DISL:DISL:1,2010-01-14T06:00:00Z,30.2513,-88.0778,526.0,1111122 
DISL,ioos:station:DISL:DISL:1,2010-01-14T06:30:00Z,30.2513,-88.0778,541.0,1111122 
DISL,ioos:station:DISL:DISL:1,2010-01-14T07:00:00Z,30.2513,-88.0778,588.0,1111122 
DISL,ioos:station:DISL:DISL:1,2010-01-14T07:30:00Z,30.2513,-88.0778,572.0,1111122 
DISL,ioos:station:DISL:DISL:1,2010-01-14T08:00:00Z,30.2513,-88.0778,588.0,1111122 
DISL,ioos:station:DISL:DISL:1,2010-01-14T08:30:00Z,30.2513,-88.0778,588.0,1111122 
DISL,ioos:station:DISL:DISL:1,2010-01-14T09:00:00Z,30.2513,-88.0778,526.0,1111122 
DISL,ioos:station:DISL:DISL:1,2010-01-14T09:30:00Z,30.2513,-88.0778,588.0,1111122 
DISL,ioos:station:DISL:DISL:1,2010-01-14T10:00:00Z,30.2513,-88.0778,588.0,1111122 
DISL,ioos:station:DISL:DISL:1,2010-01-14T10:30:00Z,30.2513,-88.0778,588.0,1111122 
DISL,ioos:station:DISL:DISL:1,2010-01-14T11:00:00Z,30.2513,-88.0778,603.0,1111122 
DISL,ioos:station:DISL:DISL:1,2010-01-14T11:30:00Z,30.2513,-88.0778,619.0,1111122 
DISL,ioos:station:DISL:DISL:1,2010-01-14T12:00:00Z,30.2513,-88.0778,634.0,1111122 
DISL,ioos:station:DISL:DISL:1,2010-01-14T12:30:00Z,30.2513,-88.0778,619.0,1111122 
DISL,ioos:station:DISL:DISL:1,2010-01-14T13:00:00Z,30.2513,-88.0778,1207.0,1111122 
DISL,ioos:station:DISL:DISL:1,2010-01-14T23:30:00Z,30.2513,-88.0778,773.0,1111122 
DISL,ioos:station:DISL:DISL:1,2010-01-15T00:00:00Z,30.2513,-88.0778,773.0,1111122 
DISL,ioos:station:DISL:DISL:1,2010-01-15T00:30:00Z,30.2513,-88.0778,773.0,1111122 
DISL,ioos:station:DISL:DISL:1,2010-01-15T01:00:00Z,30.2513,-88.0778,773.0,1111122 
DISL,ioos:station:DISL:DISL:1,2010-01-15T01:30:00Z,30.2513,-88.0778,773.0,1111122 
DISL,ioos:station:DISL:DISL:1,2010-01-15T02:00:00Z,30.2513,-88.0778,773.0,1111122 
DISL,ioos:station:DISL:DISL:1,2010-01-15T02:30:00Z,30.2513,-88.0778,773.0,1111122 
DISL,ioos:station:DISL:DISL:1,2010-01-15T03:00:00Z,30.2513,-88.0778,773.0,1111122 
DISL,ioos:station:DISL:DISL:1,2010-01-15T03:30:00Z,30.2513,-88.0778,773.0,1111122 
DISL,ioos:station:DISL:DISL:1,2010-01-15T04:00:00Z,30.2513,-88.0778,773.0,1111122 
DISL,ioos:station:DISL:DISL:1,2010-01-15T04:30:00Z,30.2513,-88.0778,773.0,1111122 
DISL,ioos:station:DISL:DISL:1,2010-01-15T05:00:00Z,30.2513,-88.0778,773.0,1111122 
DISL,ioos:station:DISL:DISL:1,2010-01-15T05:30:00Z,30.2513,-88.0778,773.0,1111122 
DISL,ioos:station:DISL:DISL:1,2010-01-15T06:00:00Z,30.2513,-88.0778,773.0,1111122 
DISL,ioos:station:DISL:DISL:1,2010-01-15T06:30:00Z,30.2513,-88.0778,773.0,1111122 
DISL,ioos:station:DISL:DISL:1,2010-01-15T07:00:00Z,30.2513,-88.0778,773.0,1111122 
DISL,ioos:station:DISL:DISL:1,2010-01-15T07:30:00Z,30.2513,-88.0778,773.0,1111122 
DISL,ioos:station:DISL:DISL:1,2010-01-15T08:00:00Z,30.2513,-88.0778,773.0,1111122 
DISL,ioos:station:DISL:DISL:1,2010-01-15T08:30:00Z,30.2513,-88.0778,773.0,1111122 
DISL,ioos:station:DISL:DISL:1,2010-01-15T09:00:00Z,30.2513,-88.0778,773.0,1111122 
DISL,ioos:station:DISL:DISL:1,2010-01-15T09:30:00Z,30.2513,-88.0778,773.0,1111122 
DISL,ioos:station:DISL:DISL:1,2010-01-15T10:00:00Z,30.2513,-88.0778,773.0,1111122 
DISL,ioos:station:DISL:DISL:1,2010-01-15T10:30:00Z,30.2513,-88.0778,835.0,1111122 
DISL,ioos:station:DISL:DISL:1,2010-01-15T11:00:00Z,30.2513,-88.0778,804.0,1111122 
DISL,ioos:station:DISL:DISL:1,2010-01-15T11:30:00Z,30.2513,-88.0778,789.0,1111122 
DISL,ioos:station:DISL:DISL:1,2010-01-15T12:00:00Z,30.2513,-88.0778,835.0,1111122 
DISL,ioos:station:DISL:DISL:1,2010-01-15T12:30:00Z,30.2513,-88.0778,835.0,1111122 
DISL,ioos:station:DISL:DISL:1,2010-01-15T13:00:00Z,30.2513,-88.0778,1145.0,1111122 
DISL,ioos:station:DISL:DISL:1,2010-01-15T23:00:00Z,30.2513,-88.0778,1144.0,1111122 
DISL,ioos:station:DISL:DISL:1,2010-01-15T23:30:00Z,30.2513,-88.0778,897.0,1111122 
DISL,ioos:station:DISL:DISL:1,2010-01-16T03:30:00Z,30.2513,-88.0778,526.0,1111122 
DISL,ioos:station:DISL:DISL:1,2010-01-16T04:00:00Z,30.2513,-88.0778,526.0,1111122 
DISL,ioos:station:DISL:DISL:1,2010-01-16T04:30:00Z,30.2513,-88.0778,650.0,1111122 
DISL,ioos:station:DISL:DISL:1,2010-01-16T05:00:00Z,30.2513,-88.0778,711.0,1111122 
DISL,ioos:station:DISL:DISL:1,2010-01-16T05:30:00Z,30.2513,-88.0778,696.0,1111122 
DISL,ioos:station:DISL:DISL:1,2010-01-16T06:00:00Z,30.2513,-88.0778,711.0,1111122 
DISL,ioos:station:DISL:DISL:1,2010-01-16T06:30:00Z,30.2513,-88.0778,727.0,1111122 
DISL,ioos:station:DISL:DISL:1,2010-01-16T07:00:00Z,30.2513,-88.0778,773.0,1111122 
DISL,ioos:station:DISL:DISL:1,2010-01-16T07:30:00Z,30.2513,-88.0778,773.0,1111122 
DISL,ioos:station:DISL:DISL:1,2010-01-16T12:30:00Z,30.2513,-88.0778,588.0,1111122 
DISL,ioos:station:DISL:DISL:1,2010-01-16T13:00:00Z,30.2513,-88.0778,742.0,1111122 
DISL,ioos:station:DISL:DISL:1,2010-01-16T13:30:00Z,30.2513,-88.0778,835.0,1111122 
DISL,ioos:station:DISL:DISL:1,2010-01-16T14:00:00Z,30.2513,-88.0778,1206.0,1111122 
DISL,ioos:station:DISL:DISL:1,2010-01-16T22:30:00Z,30.2513,-88.0778,989.0,1111122 
DISL,ioos:station:DISL:DISL:1,2010-01-17T01:00:00Z,30.2513,-88.0778,726.0,1111122 
DISL,ioos:station:DISL:DISL:1,2010-01-17T01:30:00Z,30.2513,-88.0778,742.0,1111122 
DISL,ioos:station:DISL:DISL:1,2010-01-17T02:00:00Z,30.2513,-88.0778,680.0,1111122 
DISL,ioos:station:DISL:DISL:1,2010-01-17T02:30:00Z,30.2513,-88.0778,711.0,1111122 
DISL,ioos:station:DISL:DISL:1,2010-01-17T03:00:00Z,30.2513,-88.0778,804.0,1111122 
DISL,ioos:station:DISL:DISL:1,2010-01-17T03:30:00Z,30.2513,-88.0778,804.0,1111122 
DISL,ioos:station:DISL:DISL:1,2010-01-17T04:00:00Z,30.2513,-88.0778,773.0,1111122 
DISL,ioos:station:DISL:DISL:1,2010-01-17T04:30:00Z,30.2513,-88.0778,711.0,1111122 
DISL,ioos:station:DISL:DISL:1,2010-01-17T05:00:00Z,30.2513,-88.0778,711.0,1111122 
DISL,ioos:station:DISL:DISL:1,2010-01-17T05:30:00Z,30.2513,-88.0778,711.0,1111122 
DISL,ioos:station:DISL:DISL:1,2010-01-17T06:00:00Z,30.2513,-88.0778,711.0,1111122 
DISL,ioos:station:DISL:DISL:1,2010-01-17T06:30:00Z,30.2513,-88.0778,680.0,1111122 
DISL,ioos:station:DISL:DISL:1,2010-01-17T07:00:00Z,30.2513,-88.0778,773.0,1111122 
DISL,ioos:station:DISL:DISL:1,2010-01-17T07:30:00Z,30.2513,-88.0778,804.0,1111122 
DISL,ioos:station:DISL:DISL:1,2010-01-17T08:00:00Z,30.2513,-88.0778,773.0,1111122 
DISL,ioos:station:DISL:DISL:1,2010-01-17T08:30:00Z,30.2513,-88.0778,835.0,1111122 
DISL,ioos:station:DISL:DISL:1,2010-01-17T09:00:00Z,30.2513,-88.0778,835.0,1111122 
DISL,ioos:station:DISL:DISL:1,2010-01-17T09:30:00Z,30.2513,-88.0778,804.0,1111122 
DISL,ioos:station:DISL:DISL:1,2010-01-17T10:00:00Z,30.2513,-88.0778,820.0,1111122 
DISL,ioos:station:DISL:DISL:1,2010-01-17T10:30:00Z,30.2513,-88.0778,850.0,1111122 
DISL,ioos:station:DISL:DISL:1,2010-01-17T11:00:00Z,30.2513,-88.0778,897.0,1111122 
DISL,ioos:station:DISL:DISL:1,2010-01-17T11:30:00Z,30.2513,-88.0778,897.0,1111122 
DISL,ioos:station:DISL:DISL:1,2010-01-17T12:00:00Z,30.2513,-88.0778,897.0,1111122 
DISL,ioos:station:DISL:DISL:1,2010-01-17T12:30:00Z,30.2513,-88.0778,897.0,1111122 
DISL,ioos:station:DISL:DISL:1,2010-01-17T13:00:00Z,30.2513,-88.0778,1113.0,1111122 
DISL,ioos:station:DISL:DISL:1,2010-01-17T23:00:00Z,30.2513,-88.0778,1268.0,1111122 
DISL,ioos:station:DISL:DISL:1,2010-01-17T23:30:00Z,30.2513,-88.0778,1005.0,1111122 
DISL,ioos:station:DISL:DISL:1,2010-01-18T00:00:00Z,30.2513,-88.0778,990.0,1111122 
DISL,ioos:station:DISL:DISL:1,2010-01-18T00:30:00Z,30.2513,-88.0778,1005.0,1111122 
DISL,ioos:station:DISL:DISL:1,2010-01-18T01:00:00Z,30.2513,-88.0778,1005.0,1111122 
DISL,ioos:station:DISL:DISL:1,2010-01-18T01:30:00Z,30.2513,-88.0778,1005.0,1111122 
DISL,ioos:station:DISL:DISL:1,2010-01-18T02:00:00Z,30.2513,-88.0778,1021.0,1111122 
DISL,ioos:station:DISL:DISL:1,2010-01-18T02:30:00Z,30.2513,-88.0778,1021.0,1111122 
DISL,ioos:station:DISL:DISL:1,2010-01-18T03:00:00Z,30.2513,-88.0778,1005.0,1111122 
DISL,ioos:station:DISL:DISL:1,2010-01-18T03:30:00Z,30.2513,-88.0778,1020.0,1111122 
DISL,ioos:station:DISL:DISL:1,2010-01-18T04:00:00Z,30.2513,-88.0778,1005.0,1111122 
DISL,ioos:station:DISL:DISL:1,2010-01-18T04:30:00Z,30.2513,-88.0778,1005.0,1111122 
DISL,ioos:station:DISL:DISL:1,2010-01-18T05:00:00Z,30.2513,-88.0778,1005.0,1111122 
DISL,ioos:station:DISL:DISL:1,2010-01-18T05:30:00Z,30.2513,-88.0778,990.0,1111122 
DISL,ioos:station:DISL:DISL:1,2010-01-18T06:00:00Z,30.2513,-88.0778,974.0,1111122 
DISL,ioos:station:DISL:DISL:1,2010-01-18T06:30:00Z,30.2513,-88.0778,974.0,1111122 
DISL,ioos:station:DISL:DISL:1,2010-01-18T07:00:00Z,30.2513,-88.0778,1005.0,1111122 
DISL,ioos:station:DISL:DISL:1,2010-01-18T07:30:00Z,30.2513,-88.0778,1005.0,1111122 
DISL,ioos:station:DISL:DISL:1,2010-01-18T08:00:00Z,30.2513,-88.0778,1021.0,1111122 
DISL,ioos:station:DISL:DISL:1,2010-01-18T08:30:00Z,30.2513,-88.0778,1021.0,1111122 
DISL,ioos:station:DISL:DISL:1,2010-01-18T09:00:00Z,30.2513,-88.0778,1021.0,1111122 
DISL,ioos:station:DISL:DISL:1,2010-01-18T09:30:00Z,30.2513,-88.0778,990.0,1111122 
DISL,ioos:station:DISL:DISL:1,2010-01-18T10:00:00Z,30.2513,-88.0778,1005.0,1111122 
DISL,ioos:station:DISL:DISL:1,2010-01-18T10:30:00Z,30.2513,-88.0778,1021.0,1111122 
DISL,ioos:station:DISL:DISL:1,2010-01-18T11:00:00Z,30.2513,-88.0778,1021.0,1111122 
DISL,ioos:station:DISL:DISL:1,2010-01-18T11:30:00Z,30.2513,-88.0778,1021.0,1111122 
DISL,ioos:station:DISL:DISL:1,2010-01-18T12:00:00Z,30.2513,-88.0778,1036.0,1111122 
DISL,ioos:station:DISL:DISL:1,2010-01-18T12:30:00Z,30.2513,-88.0778,1036.0,1111122 
DISL,ioos:station:DISL:DISL:1,2010-01-18T23:30:00Z,30.2513,-88.0778,959.0,1111122 
DISL,ioos:station:DISL:DISL:1,2010-01-19T00:00:00Z,30.2513,-88.0778,959.0,1111122 
DISL,ioos:station:DISL:DISL:1,2010-01-19T00:30:00Z,30.2513,-88.0778,959.0,1111122 
DISL,ioos:station:DISL:DISL:1,2010-01-19T01:00:00Z,30.2513,-88.0778,959.0,1111122 
DISL,ioos:station:DISL:DISL:1,2010-01-19T01:30:00Z,30.2513,-88.0778,959.0,1111122 
DISL,ioos:station:DISL:DISL:1,2010-01-19T02:00:00Z,30.2513,-88.0778,959.0,1111122 
DISL,ioos:station:DISL:DISL:1,2010-01-19T02:30:00Z,30.2513,-88.0778,959.0,1111122 
DISL,ioos:station:DISL:DISL:1,2010-01-19T03:00:00Z,30.2513,-88.0778,959.0,1111122 
DISL,ioos:station:DISL:DISL:1,2010-01-19T03:30:00Z,30.2513,-88.0778,959.0,1111122 
DISL,ioos:station:DISL:DISL:1,2010-01-19T04:00:00Z,30.2513,-88.0778,959.0,1111122 
DISL,ioos:station:DISL:DISL:1,2010-01-19T04:30:00Z,30.2513,-88.0778,959.0,1111122 
DISL,ioos:station:DISL:DISL:1,2010-01-19T05:00:00Z,30.2513,-88.0778,959.0,1111122 
DISL,ioos:station:DISL:DISL:1,2010-01-19T05:30:00Z,30.2513,-88.0778,959.0,1111122 
DISL,ioos:station:DISL:DISL:1,2010-01-19T06:00:00Z,30.2513,-88.0778,959.0,1111122 
DISL,ioos:station:DISL:DISL:1,2010-01-19T06:30:00Z,30.2513,-88.0778,959.0,1111122 
DISL,ioos:station:DISL:DISL:1,2010-01-19T07:00:00Z,30.2513,-88.0778,959.0,1111122 
DISL,ioos:station:DISL:DISL:1,2010-01-19T07:30:00Z,30.2513,-88.0778,959.0,1111122 
DISL,ioos:station:DISL:DISL:1,2010-01-19T08:00:00Z,30.2513,-88.0778,943.0,1111122 
DISL,ioos:station:DISL:DISL:1,2010-01-19T08:30:00Z,30.2513,-88.0778,959.0,1111122 
DISL,ioos:station:DISL:DISL:1,2010-01-19T09:00:00Z,30.2513,-88.0778,897.0,1111122 
DISL,ioos:station:DISL:DISL:1,2010-01-19T09:30:00Z,30.2513,-88.0778,866.0,1111122 
DISL,ioos:station:DISL:DISL:1,2010-01-19T10:00:00Z,30.2513,-88.0778,835.0,1111122 
DISL,ioos:station:DISL:DISL:1,2010-01-19T10:30:00Z,30.2513,-88.0778,897.0,1111122 
DISL,ioos:station:DISL:DISL:1,2010-01-19T11:00:00Z,30.2513,-88.0778,835.0,1111122 
DISL,ioos:station:DISL:DISL:1,2010-01-19T11:30:00Z,30.2513,-88.0778,897.0,1111122 
DISL,ioos:station:DISL:DISL:1,2010-01-19T12:00:00Z,30.2513,-88.0778,851.0,1111122 
DISL,ioos:station:DISL:DISL:1,2010-01-19T12:30:00Z,30.2513,-88.0778,835.0,1111122 
DISL,ioos:station:DISL:DISL:1,2010-01-19T23:30:00Z,30.2513,-88.0778,1020.0,1111122 
DISL,ioos:station:DISL:DISL:1,2010-01-20T00:00:00Z,30.2513,-88.0778,959.0,1111122 
DISL,ioos:station:DISL:DISL:1,2010-01-20T00:30:00Z,30.2513,-88.0778,959.0,1111122 
DISL,ioos:station:DISL:DISL:1,2010-01-20T01:00:00Z,30.2513,-88.0778,959.0,1111122 
DISL,ioos:station:DISL:DISL:1,2010-01-20T01:30:00Z,30.2513,-88.0778,943.0,1111122 